Location: Roc des P�zouls
(43.9667°N, 3.5500°E)
Time: 00:38:40
(UTC+00:00)

USA 267 - Pass Details

Date: 14 November 2019
Orbit: 1101 x 1106 km, 123.0° (Epoch: 09 December)

Event Time Altitude Azimuth Distance (km) Brightness Sun altitude
Rises 05:28:27 0° 52° (NE) 3,923 6.8 -12.8°
Reaches altitude 10° 05:31:04 10° 58° (ENE) 2,963 6.2 -12.3°
Maximum altitude 05:37:20 48° 132° (SE) 1,411 4.3 -11.2°
Drops below altitude 10° 05:43:36 10° 205° (SSW) 2,952 5.4 -10.2°
Sets 05:46:10 0° 211° (SSW) 3,907 6.0 -9.7°
